Powrót do katalogu

STRV 1A

AktywnyNaukaHEO
NORAD 23125·PAYLOAD·🇬🇧 United Kingdom

Wystrzelony Jun 17, 1994 z Guiana Space Centre

Loading…

Następne Przeloty (najbliższe 24 godziny)

TLE

ŚwieżeSource: Space-Track

Epoka: Sep 14, 2026, 12:06 UTC

1 23125U 94034B   26257.50484410  .00010509  00000-0  13183-2 0  9994
2 23125   7.3418 177.2537 6420363 356.9697   0.5054  3.45101623337270

Śledź STRV 1A w czasie rzeczywistym z AllMySat

Download on the App Store